map of MIR home
MIR - Airport
Location
City:  Monastir, Tunisia
Name:Habib Bourguiba International Airport
ICAO:DTMB
IATA:MIR

Details
Type:Airport (Aerodrome, Airfield)
Use:Public/Civil, International (customs port of entry)
Latitude:3545'29"N (35.758056)
Longitude:1045'17"E (10.754722)
Elevation:9 ft (3 m)
Variation:2.65E (WMM2015v2 magnetic declination)
0.12 annual change
Runways:1
Longest:9744 × 148 ft (2970 × 45 m), paved

Time
Time Zone:UTC+1 (DST+2)

Weather
METAR:DTMB 041400Z 31020G30KT 8000 FEW026 FEW030CB SCT040 12/06 Q1010
TAF:DTMB 041100Z 0412/0512 35020KT 9999 SCT026 PROB40
TEMPO 0412/0418 -TSRA SCT030CB
BECMG 0418/0420 32027G40KT
TEMPO 0418/0512 4000 TS SHRA SCT030CB

Related Locations
Nearby:
Farthest:CHT: 11759 mi / 18924 km
Waitangi [Tuuta], CIT, NZ

Find:

   beyond  
but within

Other Information
Maps:
NOTAMs:
Links:
Sources:

  
  • flag of Tunisia
  

Sectional Chart

Flight Planning
at skyvector.com

Satellite Image

Google Maps Satellite view

 

Copyright © 2004-2019 Karl L. Swartz. All rights reserved.
The Great Circle Mapper name and logo are trademarks of the Great Circle Mapper.
All other trademarks mentioned herein belong to their respective owners.
Please see credits for attibutions and further copyright information.

  Follow gcmap on Facebook Follow gcmap on Twitter GCmap on LinkedIn

hCard Microformat

Geo Microformat